Weather History for Salt Lake City, UT

Change the Weather History Date:

Thursday, April 4, 2013

  Actual Average Record
Temperature  
Mean Temperature 61 °F 48 °F  
Max Temperature 73 °F 58 °F 79 °F (1889)
Min Temperature 48 °F 37 °F 20 °F (1955)
Degree Days  
Heating Degree Days 4 17  
Month to date heating degree days 40 70  
Since 1 July heating degree days 4898 4988  
Cooling Degree Days 0 0  
Month to date cooling degree days 0 0  
Year to date cooling degree days 0 0  
Growing Degree Days 12 (Base 50)    
Moisture  
Dew Point 34 °F    
Average Humidity 41    
Maximum Humidity 61    
Minimum Humidity 20    
Precipitation  
Precipitation 0.00 in 0.06 in 0.67 in (1947)
Month to date precipitation 0.64 0.25  
Year to date precipitation 3.55 4.54  
Snow  
Snow 0.00 in 0.20 in 3.90 in (1947)
Month to date snowfall 0.0 0.8  
Since 1 July snowfall 69.8 52.7  
Snow Depth 0.00 in    
Sea Level Pressure  
Sea Level Pressure 29.93 in    
Wind  
Wind Speed 13 mph (SSE)    
Max Wind Speed 25 mph    
Max Gust Speed 31 mph    
Visibility 10 miles    
Events      
T = Trace of Precipitation, MM = Missing Value Source: NWS Daily Summary

Daily Weather History Graph

Daily Weather History Graph

Search for Another Location

Airport:

Trip Planner

Search our weather history database for the weather conditions in past years. The results will help you decide how hot, cold, wet, or windy it might be!

Date:

Astronomy

Apr. 04, 2013 Rise Set
Actual Time 7:05 AM MDT 7:56 PM MDT
Civil Twilight 6:38 AM MDT 8:23 PM MDT
Nautical Twilight 6:05 AM MDT 8:57 PM MDT
Astronomical Twilight 5:31 AM MDT 9:31 PM MDT
Moon 3:37 AM MDT (4/4) 2:16 PM MDT (4/4)
Length of Visible Light 13h 45m
Length of Day
12h 50m
Waning Crescent, 33% of the Moon is Illuminated
Apr 4
Waning Crescent
Apr 10
New
Apr 18
First Quarter
Apr 25
Full
May 2
Last Quarter

Hourly Weather History & Observations

Time (MDT) Temp. Dew Point Humidity Pressure Visibility Wind Dir Wind Speed Gust Speed Precip Events Conditions
12:53 AM 51.1 °F 30.9 °F 46% 30.04 in 10.0 mi SE 6.9 mph - N/A   Clear
1:53 AM 50.0 °F 34.0 °F 54% 30.04 in 10.0 mi SSE 5.8 mph - N/A   Clear
2:53 AM 48.9 °F 36.0 °F 61% 30.04 in 10.0 mi SSE 6.9 mph - N/A   Clear
3:53 AM 50.0 °F 37.0 °F 61% 30.03 in 10.0 mi SSE 9.2 mph - N/A   Partly Cloudy
4:53 AM 51.1 °F 37.0 °F 59% 30.02 in 10.0 mi South 10.4 mph - N/A   Scattered Clouds
5:53 AM 50.0 °F 37.0 °F 61% 30.02 in 10.0 mi SE 11.5 mph - N/A   Partly Cloudy
6:53 AM 51.1 °F 35.1 °F 54% 30.02 in 10.0 mi South 13.8 mph - N/A   Partly Cloudy
7:53 AM 52.0 °F 36.0 °F 54% 30.03 in 10.0 mi SSE 15.0 mph - N/A   Scattered Clouds
8:53 AM 55.9 °F 37.0 °F 49% 30.00 in 10.0 mi SSE 13.8 mph - N/A   Scattered Clouds
9:53 AM 60.1 °F 39.0 °F 46% 30.01 in 10.0 mi SSE 13.8 mph - N/A   Scattered Clouds
10:53 AM 63.0 °F 37.9 °F 40% 29.99 in 10.0 mi SSE 17.3 mph 21.9 mph N/A   Mostly Cloudy
11:53 AM 66.9 °F 35.1 °F 31% 29.98 in 10.0 mi South 16.1 mph 25.3 mph N/A   Mostly Cloudy
12:53 PM 69.1 °F 34.0 °F 27% 29.95 in 10.0 mi South 21.9 mph 29.9 mph N/A   Mostly Cloudy
1:53 PM 71.1 °F 35.1 °F 27% 29.92 in 10.0 mi South 16.1 mph 29.9 mph N/A   Mostly Cloudy
2:53 PM 71.1 °F 35.1 °F 27% 29.89 in 10.0 mi South 21.9 mph 26.5 mph N/A   Mostly Cloudy
3:53 PM 71.1 °F 33.1 °F 25% 29.87 in 10.0 mi South 15.0 mph 20.7 mph N/A   Mostly Cloudy
4:53 PM 71.1 °F 30.0 °F 22% 29.85 in 10.0 mi South 17.3 mph 26.5 mph N/A   Mostly Cloudy
5:53 PM 71.1 °F 26.1 °F 19% 29.83 in 10.0 mi South 17.3 mph 25.3 mph N/A   Mostly Cloudy
6:53 PM 70.0 °F 26.1 °F 19% 29.82 in 10.0 mi South 13.8 mph 23.0 mph N/A   Mostly Cloudy
7:53 PM 66.9 °F 30.9 °F 26% 29.81 in 10.0 mi South 8.1 mph - N/A   Mostly Cloudy
8:53 PM 64.9 °F 33.1 °F 31% 29.80 in 10.0 mi SE 5.8 mph - N/A   Mostly Cloudy
9:53 PM 66.0 °F 30.9 °F 27% 29.80 in 10.0 mi Calm Calm - N/A   Mostly Cloudy
10:53 PM 64.0 °F 30.9 °F 29% 29.78 in 10.0 mi South 5.8 mph - N/A   Mostly Cloudy
11:53 PM 64.0 °F 33.1 °F 31% 29.76 in 10.0 mi SSE 9.2 mph - N/A   Mostly Cloudy